Regional Weather Roundup
Issued by NWS

Home | Current Version | Previous Version | Text Only | Print | Product List | Glossary Off
Versions: 1 2 3 4 5 6 7 8 9 10 11 12 13 14 15 16 17 18 19 20 21 22 23 24 25 26 27 28 29 30 31 32 33 34 35 36 37 38 39 40 41 42 43 44 45 46 47 48 49 50

000
ASUS43 KTOP 270259
RWRKS

WEATHER ROUNDUP FOR KANSAS
NATIONAL WEATHER SERVICE GOODLAND KS
1000 PM CDT FRI MAY 26 2017

NOTE:  "FAIR" INDICATES FEW OR NO CLOUDS BELOW 12,000 FEET WITH NO
SIGNIFICANT WEATHER AND/OR OBSTRUCTIONS TO VISIBILITY.

KSZ001>006-013>018-027>032-041>047-270400-
NORTHWEST KANSAS

CITY           SKY/WX    TMP DP  RH WIND       PRES   REMARKS
GOODLAND       CLOUDY    62  52  69 N16G31    29.84F THUNDER
HAYS           CLEAR     65  58  78 E7        29.84S
HILL CITY      CLOUDY    63  57  81 CALM      29.86R
RUSSELL        CLEAR     66  60  81 E7        29.83R
$$

KSZ061>065-074>080-084>089-270400-
SOUTHWEST KANSAS

CITY           SKY/WX    TMP DP  RH WIND       PRES   REMARKS
DODGE CITY     CLEAR     68  59  73 E9        29.84R
ELKHART          N/A     66  46  48 MISG        N/A
GARDEN CITY    CLEAR     68  56  65 E13       29.83R
GREAT BEND     CLEAR     70  60  70 E6        29.84R
LIBERAL        CLEAR     71  56  58 SE15      29.81F
$$

KSZ066>073-081>083-090>101-270400-
SOUTHEAST KANSAS

CITY           SKY/WX    TMP DP  RH WIND       PRES   REMARKS
CHANUTE        CLEAR     75  65  70 E5        29.81R
COFFEYVILLE    PTCLDY    73  68  84 E5        29.79R
HUTCHINSON     CLEAR     72  61  68 NE5       29.82R
MEDICINE LODGE   N/A     75  59  57 E6        29.81R
NEWTON         CLEAR     71  62  73 E3        29.83R
PARSONS        CLEAR     69  65  86 NE3       29.81R
WICHITA INTL   CLEAR     74  62  66 E8        29.81R
WICHITA JABRA  CLEAR     72  62  71 E5        29.82R
WINFIELD       CLEAR     75  64  68 E5        29.82R
$$

KSZ007>012-019>026-033>040-048>060-102>105-270400-
NORTHEAST KANSAS

CITY           SKY/WX    TMP DP  RH WIND       PRES   REMARKS
CONCORDIA      CLEAR     68  55  63 CALM      29.84R
EMPORIA        CLEAR     73  63  70 E5        29.82R
LAWRENCE       CLEAR     71  66  84 CALM      29.81R
MANHATTAN      CLEAR     68  63  84 CALM      29.81R
OLATHE IND     CLEAR     75  64  68 E3        29.83R
OLATHE EXE     CLEAR     75  65  70 E3        29.83R
SALINA         CLEAR     78  60  53 E5        29.82R
TOPEKA BILLARD CLEAR     73  68  84 CALM      29.81R
TOPEKA FORBES  CLEAR     71  66  84 CALM      29.82R
$$




USA.gov is the U.S. government's official web portal to all federal, state and local government web resources and services.